Seattle, WA
on Sunday, January 20, 2013

Sunday
Previous Day Next Day
Daily Summary
 ActualAverageRecord
Temperature
Mean Temperature °F 42°F  
Max Temperature 38°F 48°F 64°F (1981)
Min Temperature 31°F 37°F 16°F (1954)
Degree Days
Heating Degree Days 30 23  
Month to date heating degree days 562 468  
Since 1 July heating degree days 2313 2406  
Cooling Degree Days 0 0  
Month to date cooling degree days 0 0  
Year to date cooling degree days 0 0  
Moisture
Dew Point 33°F   
Average Humidity 93    
Maximum Humidity 100    
Minimum Humidity 85    
Precipitation
Precipitation 0.00 in 0.19 in 1.66 in (1972)
Month to date precipitation 2.71 3.78  
Year to date precipitation 2.71 3.78  
Snow
Snow 0.00 in in 1.50 in (1951)
Month to date snowfall T  
Since 1 July snowfall 0.6  
Snow Depth 0.00 in   
Wind
Wind Speed 5 mph   
Max Wind Speed 9 mph   
Max Gust Speed 10 mph   
Visibility 1 miles   
Events Fog   

Key: T is trace of precipitation, MM is missing value
Source: NWS Daily Summary
Time(PST)TemperatureDew PointHumidity Pressure Visibility Wind DirectionWind SpeedGust SpeedPrecipitationEvents Conditions
12:53 AM 33.1°F 32.0°F 96% 30.40 in 0.1 miles NNE 6.9 mph - N/A Fog Fog
1:53 AM 33.1°F 32.0°F 96% 30.41 in 0.1 miles Calm Calm - N/A Fog Fog
2:53 AM 33.1°F 32.0°F 96% 30.41 in 0.1 miles NNE 6.9 mph - N/A Fog Fog
3:53 AM 33.1°F 32.0°F 96% 30.41 in 0.1 miles NNE 8.1 mph - N/A Fog Fog
4:53 AM 32.0°F 32.0°F 100% 30.40 in 0.1 miles NNE 4.6 mph - N/A Fog Fog
5:53 AM 32.0°F 30.9°F 96% 30.40 in 0.1 miles NE 6.9 mph - N/A Fog Fog
6:03 AM 32.0°F 30.2°F 93% 30.37 in 0.1 miles NE 4.6 mph - N/A Fog Fog
6:13 AM 32.0°F 30.2°F 93% 30.36 in 0.1 miles NE 4.6 mph - N/A Fog Fog
6:53 AM 30.9°F 30.0°F 96% 30.39 in 0.1 miles NNE 5.8 mph - N/A Fog Light Freezing Fog
7:53 AM 30.9°F 30.0°F 96% 30.40 in 0.1 miles NNE 5.8 mph - N/A Fog Light Freezing Fog
8:53 AM 32.0°F 30.9°F 96% 30.41 in 0.1 miles NNE 6.9 mph - N/A Fog Fog
9:53 AM 33.1°F 32.0°F 96% 30.42 in 0.1 miles NE 5.8 mph - N/A Fog Fog
10:53 AM 34.0°F 33.1°F 96% 30.41 in 0.1 miles Variable 3.5 mph - N/A Fog Fog
11:53 AM 35.1°F 34.0°F 96% 30.38 in 0.1 miles North 4.6 mph - N/A Fog Fog
12:08 PM 35.6°F 33.8°F 93% 30.34 in 0.1 miles North 4.6 mph - N/A Fog Fog
12:30 PM 35.6°F 33.8°F 93% 30.34 in 0.1 miles NNE 5.8 mph - N/A Fog Fog
12:44 PM 35.6°F 33.8°F 93% 30.33 in 0.2 miles NNE 4.6 mph - N/A Fog Fog
12:50 PM 35.6°F 33.8°F 93% 30.33 in 0.2 miles NNE 4.6 mph - N/A Fog Fog
12:51 PM 36.0°F 34.0°F 93% 30.36 in 0.2 miles NNE 5.8 mph - N/A Fog Fog
1:23 PM 35.6°F 33.8°F 93% 30.32 in 1.5 miles North 4.6 mph - N/A   Overcast
1:34 PM 35.6°F 33.8°F 93% 30.32 in 2.0 miles NNW 3.5 mph - N/A   Overcast
1:53 PM 36.0°F 35.1°F 97% 30.34 in 2.0 miles North 5.8 mph - N/A   Overcast
2:53 PM 37.9°F 35.1°F 89% 30.34 in 2.0 miles Calm Calm - N/A   Overcast
3:22 PM 37.4°F 35.6°F 93% 30.30 in 3.0 miles North 3.5 mph - N/A   Overcast
3:53 PM 37.9°F 34.0°F 86% 30.33 in 2.0 miles ENE 3.5 mph - N/A   Mostly Cloudy
4:18 PM 37.4°F 33.8°F 87% 30.29 in 1.5 miles ENE 3.5 mph - N/A   Mostly Cloudy
4:39 PM 35.6°F 33.8°F 93% 30.29 in 1.2 miles ENE 4.6 mph - N/A   Mostly Cloudy
4:53 PM 36.0°F 34.0°F 93% 30.32 in 4.0 miles East 3.5 mph - N/A   Mostly Cloudy
5:53 PM 35.1°F 33.1°F 92% 30.31 in 4.0 miles Calm Calm - N/A   Scattered Clouds
6:21 PM 33.8°F 30.2°F 87% 30.27 in 0.2 miles ESE 3.5 mph - N/A Fog Fog
6:38 PM 33.8°F 32.0°F 93% 30.26 in 0.1 miles Calm Calm - N/A Fog Fog
6:53 PM 33.1°F 32.0°F 96% 30.30 in 0.1 miles Calm Calm - N/A Fog Fog
7:39 PM 32.0°F 30.2°F 93% 30.26 in 0.2 miles NE 3.5 mph - N/A Fog Fog
7:53 PM 30.9°F 30.0°F 96% 30.30 in 0.8 miles NE 4.6 mph - N/A   Mostly Cloudy
8:35 PM 32.0°F 30.2°F 93% 30.27 in 0.8 miles NE 5.8 mph - N/A   Mostly Cloudy
8:53 PM 32.0°F 30.9°F 96% 30.30 in 0.2 miles NNE 5.8 mph - N/A Fog Fog
9:08 PM 33.8°F 32.0°F 93% 30.27 in 0.2 miles NE 4.6 mph - N/A Fog Fog
9:53 PM 34.0°F 33.1°F 96% 30.30 in 0.2 miles NNE 5.8 mph - N/A Fog Fog
10:53 PM 35.1°F 34.0°F 96% 30.29 in 0.2 miles North 6.9 mph - N/A Fog Fog
11:53 PM 36.0°F 35.1°F 97% 30.29 in 0.2 miles North 4.6 mph - N/A Fog Fog
Moon Phase
Jan. 20 Jan. 26 Feb. 03 Feb. 10 Feb. 17
Sunrise:07:48 AM (PST) Moon Rise:11:58 AM (PST)1/20
Sunset:04:53 PM (PST) Moon Set:02:23 AM (PST)1/20

Copyright © 2014 The Weather Underground, Inc.